Calgary Springbank, Alberta

7:38 AM MDT on April 23, 2017 (GMT -0600)
Springbank

Weather History for CYBW - November, 2010

Change the Weather History Date:

Tuesday, November 30, 2010

  Actual Average Record
Temperature  
Mean Temperature 18 °F -  
Max Temperature 36 °F 27 °F 51 °F (2002)
Min Temperature 1 °F 8 °F -25 °F (2014)
Degree Days  
Heating Degree Days 46    
Moisture  
Dew Point 19 °F    
Average Humidity 71    
Maximum Humidity 86    
Minimum Humidity 54    
Precipitation  
Precipitation 0.00 in - - ()
Sea Level Pressure  
Sea Level Pressure 29.96 in    
Wind  
Wind Speed 6 mph ()    
Max Wind Speed 21 mph    
Max Gust Speed 18 mph    
Visibility 15.0 miles    
Events Snow    
Averages and records for this station are not official NWS values.
T = Trace of Precipitation, MM = Missing Value Source: Averaged Metar Reports

Daily Weather History Graph

Daily Weather History Graph

Search for Another Location

Airport or City:

Trip Planner

Search our weather history database for the weather conditions in past years. The results will help you decide how hot, cold, wet, or windy it might be!

Date:

Astronomy

Nov. 30, 2010 Rise Set
Actual Time 8:17 AM MST 4:34 PM MST
Civil Twilight 7:39 AM MST 5:12 PM MST
Nautical Twilight 6:57 AM MST 5:54 PM MST
Astronomical Twilight 6:17 AM MST 6:34 PM MST
Moon 2:06 AM MST (11/30) 1:34 PM MST (11/30)
Length of Visible Light 9h 33m
Length of Day
8h 16m
Waning Crescent, 29% of the Moon is Illuminated
Nov 30
Waning Crescent
Dec 5
New
Dec 13
First Quarter
Dec 21
Full
Dec 27
Last Quarter

Hourly Weather History & Observations

Time (MST) Temp. Windchill Dew Point Humidity Pressure Visibility Wind Dir Wind Speed Gust Speed Precip Events Conditions
5:00 AM 16 °F - 12 °F 79% 30.12 in 15 mi SSW 2.3 mph - -   Overcast
5:00 AM 15.8 °F - 12.2 °F 86% 30.12 in 15.0 mi Calm Calm - N/A   Overcast
7:00 AM 21.2 °F 14.9 °F 15.8 °F 80% 30.09 in 15.0 mi SSW 4.6 mph - N/A   Overcast
8:00 AM 21.2 °F 14.9 °F 17.6 °F 86% 30.06 in 25.0 mi SSW 4.6 mph - N/A   Overcast
9:00 AM 26.6 °F 21.2 °F 19.4 °F 74% 30.05 in 30.0 mi NNW 4.6 mph - N/A   Mostly Cloudy
10:00 AM 28.4 °F 23.3 °F 21.2 °F 74% 30.04 in 30.0 mi North 4.6 mph - N/A   Mostly Cloudy
10:04 AM - - - N/A% - 30.0 mi North 3.5 mph - N/A   Unknown
10:50 AM - - - N/A% - 30.0 mi West 4.6 mph - N/A   Mostly Cloudy
11:00 AM 26 °F - 21 °F 73% 30.02 in 28 mi West 5.8 mph - - Snow Light Snow
11:00 AM 26.6 °F 20.0 °F 21.2 °F 80% 30.02 in 30.0 mi WSW 5.8 mph - N/A   Mostly Cloudy
12:00 PM 28.4 °F 22.2 °F 21.2 °F 74% 30.00 in 30.0 mi SSW 5.8 mph - N/A   Mostly Cloudy
1:00 PM 35.6 °F 24.5 °F 24.8 °F 65% 29.96 in 30.0 mi WNW 20.7 mph - N/A   Mostly Cloudy
3:00 PM 33.8 °F 24.8 °F 19.4 °F 56% 29.93 in 30.0 mi NW 12.7 mph 18.4 mph N/A   Mostly Cloudy
4:00 PM 32.0 °F 19.8 °F 23.0 °F 69% 29.90 in 30.0 mi West 20.7 mph - N/A   Mostly Cloudy
5:00 PM 30 °F - 20 °F 54% 29.86 in 28 mi Calm Calm - -   Scattered Clouds
5:00 PM 30.2 °F 26.7 °F 19.4 °F 64% 29.86 in 30.0 mi WSW 3.5 mph - N/A   Mostly Cloudy
5:26 PM - - - N/A% - 15.0 mi NE 11.5 mph - N/A   Mostly Cloudy
5:51 PM - - - N/A% - 15.0 mi WNW 11.5 mph - N/A   Mostly Cloudy
6:00 PM 30.2 °F 19.3 °F 17.6 °F 60% 29.86 in 15.0 mi WNW 15.0 mph - N/A   Scattered Clouds
7:00 PM 30.2 °F 21.3 °F 17.6 °F 60% 29.87 in 15.0 mi North 10.4 mph - N/A   Scattered Clouds
8:00 PM 28.4 °F 15.4 °F 19.4 °F 69% 29.85 in 15.0 mi West 19.6 mph - N/A   Partly Cloudy
9:00 PM 26.6 °F 15.7 °F 17.6 °F 69% 29.86 in 15.0 mi NW 12.7 mph - N/A   Partly Cloudy
10:00 PM 30.2 °F 18.9 °F 21.2 °F 69% 29.86 in 15.0 mi West 16.1 mph - N/A   Mostly Cloudy